Cypress Lake Weather Center

Moon Phase Calendar



Cypress Lake Water Level
Online Cameras

 


      

Current Conditions in Poinciana
7/7/2022 6:16:46 AM

75°F
Feels Like 76
Clouds
Humidity
100%
Pressure
30"
Wind
5.1 mph (S)
Dew Point
75°F
UV Index
0/10 (Low)
Visibility
6 mi

Hourly Forecast

Date & Time Thu, Jul 7
6:00 AM
Thu, Jul 7
7:00 AM
Thu, Jul 7
8:00 AM
Thu, Jul 7
9:00 AM
Thu, Jul 7
10:00 AM
Thu, Jul 7
11:00 AM
Thu, Jul 7
12:00 PM
Thu, Jul 7
1:00 PM
Thu, Jul 7
2:00 PM
Thu, Jul 7
3:00 PM
Thu, Jul 7
4:00 PM
Thu, Jul 7
5:00 PM
Thu, Jul 7
6:00 PM
Thu, Jul 7
7:00 PM
Thu, Jul 7
8:00 PM
Thu, Jul 7
9:00 PM
Thu, Jul 7
10:00 PM
Thu, Jul 7
11:00 PM
Fri, Jul 8
12:00 AM
Fri, Jul 8
1:00 AM
Fri, Jul 8
2:00 AM
Fri, Jul 8
3:00 AM
Fri, Jul 8
4:00 AM
Fri, Jul 8
5:00 AM
Fri, Jul 8
6:00 AM
Fri, Jul 8
7:00 AM
Fri, Jul 8
8:00 AM
Fri, Jul 8
9:00 AM
Fri, Jul 8
10:00 AM
Fri, Jul 8
11:00 AM
Fri, Jul 8
12:00 PM
Fri, Jul 8
1:00 PM
Fri, Jul 8
2:00 PM
Fri, Jul 8
3:00 PM
Fri, Jul 8
4:00 PM
Fri, Jul 8
5:00 PM
Fri, Jul 8
6:00 PM
Fri, Jul 8
7:00 PM
Fri, Jul 8
8:00 PM
Fri, Jul 8
9:00 PM
Fri, Jul 8
10:00 PM
Fri, Jul 8
11:00 PM
Sat, Jul 9
12:00 AM
Sat, Jul 9
1:00 AM
Sat, Jul 9
2:00 AM
Sat, Jul 9
3:00 AM
Sat, Jul 9
4:00 AM
Sat, Jul 9
5:00 AM
Condition
Clouds

Clouds

Clouds

Clouds

Clouds

Clouds

Rain

Rain

Rain

Rain

Rain

Rain

Rain

Rain

Rain

Clouds

Clouds

Clouds

Clouds

Clouds

Clouds

Clouds

Clouds

Clouds

Clouds

Clouds

Clouds

Clouds

Clouds

Clouds

Clouds

Clouds

Clouds

Clear

Clouds

Clouds

Clouds

Clouds

Clouds

Clouds

Clouds

Clouds

Clouds

Clouds

Clouds

Clouds

Clouds

Clouds
Temperature 75°F75°F76°F79°F82°F87°F88°F89°F90°F91°F91°F88°F84°F85°F83°F81°F80°F79°F78°F77°F77°F76°F76°F75°F75°F75°F77°F81°F84°F87°F89°F91°F92°F94°F94°F90°F86°F85°F84°F83°F82°F81°F80°F79°F78°F78°F77°F77°F
Feels Like 76°F77°F78°F80°F89°F94°F96°F97°F99°F99°F99°F95°F91°F92°F89°F86°F80°F80°F79°F79°F78°F78°F77°F77°F76°F76°F79°F84°F89°F91°F93°F94°F95°F96°F97°F95°F93°F92°F91°F89°F88°F86°F84°F79°F80°F79°F78°F78°F
Cloudiness 69%70%73%85%84%92%94%93%87%34%39%54%65%72%74%73%53%52%53%56%49%18%24%27%45%44%53%100%100%91%73%61%53%8%20%46%60%68%71%99%92%81%79%83%75%81%68%79%
Visibility 6 mi6 mi6 mi6 mi6 mi6 mi6 mi6 mi6 mi6 mi6 mi6 mi6 mi6 mi6 mi6 mi6 mi6 mi6 mi6 mi6 mi6 mi6 mi6 mi6 mi6 mi6 mi6 mi6 mi6 mi6 mi6 mi6 mi6 mi6 mi6 mi6 mi6 mi6 mi6 mi6 mi6 mi6 mi6 mi6 mi6 mi6 mi6 mi
Precipitation 0%0%0%1%2%6%69%79%84%91%94%95%93%93%89%18%23%17%13%13%10%0%0%0%0%0%0%0%0%0%0%0%0%3%12%12%12%12%10%6%16%21%20%22%22%3%0%0%
Humidity 100%98%94%86%76%64%62%59%57%56%53%61%71%71%74%78%80%82%83%84%85%86%86%85%85%85%79%72%66%57%51%46%42%40%40%53%63%68%70%69%72%74%77%80%82%83%84%85%
Dew Point 75°F74°F74°F74°F74°F73°F73°F73°F73°F73°F72°F72°F74°F74°F74°F73°F73°F73°F72°F72°F72°F72°F71°F71°F70°F70°F71°F71°F71°F69°F68°F67°F66°F66°F66°F70°F72°F73°F73°F72°F72°F72°F72°F72°F72°F72°F72°F72°F
Pressure 30"30"30"30.03"30.03"30.06"30.03"30.03"30.03"30"30"30"30"30"30"30"30.03"30.03"30.03"30.03"30.03"30.03"30.03"30.03"30.06"30.06"30.09"30.09"30.09"30.09"30.09"30.09"30.06"30.06"30.06"30.06"30.06"30.03"30.06"30.06"30.09"30.09"30.09"30.09"30.09"30.09"30.06"30.06"
Wind Speed 5.1 mph5.5 mph6.1 mph6.6 mph6.3 mph5.9 mph5.4 mph4.1 mph2.7 mph3 mph4.4 mph8.7 mph8.6 mph6.9 mph7.1 mph8.2 mph9.2 mph8 mph7.6 mph6.9 mph5.8 mph6 mph5.9 mph5.6 mph5.4 mph5.1 mph5.4 mph5.6 mph5.9 mph6.1 mph6.1 mph5.8 mph5.4 mph3.9 mph3.4 mph9.2 mph9.6 mph8.5 mph7.1 mph7.5 mph7.4 mph6.8 mph7 mph5.6 mph6 mph4.9 mph5.2 mph5.3 mph
Wind
Direction
171°
S
172°
S
180°
S
196°
SSW
201°
SSW
203°
SSW
198°
SSW
192°
SSW
175°
S
148°
SSE
140°
SE
124°
SE
124°
SE
127°
SE
133°
SE
141°
SE
144°
SE
144°
SE
149°
SSE
157°
SSE
156°
SSE
154°
SSE
154°
SSE
160°
SSE
158°
SSE
160°
SSE
160°
SSE
162°
SSE
164°
SSE
163°
SSE
157°
SSE
159°
SSE
160°
SSE
170°
S
131°
SE
107°
ESE
108°
ESE
120°
ESE
129°
SE
146°
SE
148°
SSE
153°
SSE
155°
SSE
152°
SSE
157°
SSE
158°
SSE
168°
SSE
178°
S

Daily Forecast

Date High Low Precip. Humidity
Today
Jul 7

Rain
91 °F
75 °F
95%
59%
Friday
Jul 8

Clouds
94 °F
75 °F
21%
46%
Saturday
Jul 9

Rain
92 °F
77 °F
23%
48%
Sunday
Jul 10

Rain
91 °F
78 °F
61%
51%
Monday
Jul 11

Rain
93 °F
76 °F
68%
46%
Tuesday
Jul 12

Rain
96 °F
76 °F
68%
47%
Wednesday
Jul 13

Rain
97 °F
77 °F
97%
44%
Thursday
Jul 14

Rain
94 °F
76 °F
100%
46%
Friday
Jul 15

Rain
92 °F
73 °F
100%
45%
Saturday
Jul 16

Rain
94 °F
76 °F
95%
43%
Sunday
Jul 17

Rain
95 °F
74 °F
99%
46%
Monday
Jul 18

Rain
86 °F
76 °F
97%
64%
Tuesday
Jul 19

Rain
91 °F
73 °F
57%
48%
Wednesday
Jul 20

Rain
90 °F
74 °F
38%
55%
Thursday
Jul 21

Rain
94 °F
76 °F
79%
44%
Friday
Jul 22

Rain
94 °F
77 °F
74%
48%

Temperature 8-14 Day Outlook



Precipitation 8-14 Day Outlook




Quick Links
Cypress Lake News
Cypress Lake Photos
Cypress Lake Videos




About Us
Contact Us
Site Map
Search Site
Advertise With Us
   
Cypress-FL.LakesOnline.com
THE CYPRESS LAKE WEBSITE

Copyright 2022, Lakes Online
Privacy    |    Legal